TimeCST,TemperatureF,Dew PointF,Humidity,Sea Level PressureIn,VisibilityMPH,Wind Direction,Wind SpeedMPH,Gust SpeedMPH,PrecipitationIn,Events,Conditions,WindDirDegrees,DateUTC
12:15 AM,12.0,8.6,86,30.03,10.0,West,6.9,-,N/A,,Clear,270,2013-01-05 06:15:00
12:35 AM,10.2,7.2,87,30.02,10.0,Calm,Calm,-,N/A,,Clear,0,2013-01-05 06:35:00
12:55 AM,8.8,5.4,86,30.01,10.0,WNW,3.5,-,N/A,,Clear,290,2013-01-05 06:55:00
1:15 AM,8.6,5.5,87,30.00,10.0,Calm,Calm,-,N/A,,Clear,0,2013-01-05 07:15:00
1:35 AM,10.2,7.2,87,30.00,10.0,SSW,3.5,-,N/A,,Clear,200,2013-01-05 07:35:00
1:55 AM,11.7,7.9,85,29.99,10.0,South,3.5,-,N/A,,Clear,170,2013-01-05 07:55:00
2:15 AM,11.1,8.2,88,29.99,10.0,Calm,Calm,-,N/A,,Clear,0,2013-01-05 08:15:00
2:35 AM,8.4,5.9,89,30.00,10.0,Calm,Calm,-,N/A,,Clear,0,2013-01-05 08:35:00
2:55 AM,9.9,7.0,88,29.99,10.0,Calm,Calm,-,N/A,,Clear,0,2013-01-05 08:55:00
3:15 AM,5.9,3.0,88,29.99,10.0,Calm,Calm,-,N/A,,Clear,0,2013-01-05 09:15:00
3:35 AM,5.4,1.6,84,29.98,10.0,North,4.6,-,N/A,,Clear,360,2013-01-05 09:35:00
3:55 AM,5.5,2.5,87,29.98,10.0,Calm,Calm,-,N/A,,Clear,0,2013-01-05 09:55:00
4:15 AM,4.3,1.2,87,29.98,10.0,NNW,5.8,-,N/A,,Clear,340,2013-01-05 10:15:00
4:35 AM,5.5,2.5,87,29.98,10.0,NW,4.6,-,N/A,,Clear,320,2013-01-05 10:35:00
4:55 AM,5.9,3.4,89,29.98,10.0,NNW,4.6,-,N/A,,Clear,330,2013-01-05 10:55:00
5:15 AM,5.4,2.3,87,29.98,10.0,Calm,Calm,-,N/A,,Clear,0,2013-01-05 11:15:00
5:35 AM,5.7,2.8,88,29.97,10.0,NW,3.5,-,N/A,,Clear,310,2013-01-05 11:35:00
5:55 AM,5.4,2.7,89,29.98,10.0,NW,9.2,-,N/A,,Clear,320,2013-01-05 11:55:00
6:15 AM,9.5,6.6,88,29.99,10.0,NW,8.1,-,N/A,,Clear,310,2013-01-05 12:15:00
6:35 AM,10.4,6.8,85,29.99,10.0,WNW,9.2,-,N/A,,Clear,300,2013-01-05 12:35:00
7:15 AM,12.2,7.9,83,30.02,10.0,NW,16.1,-,N/A,,Clear,310,2013-01-05 13:15:00
7:35 AM,10.9,6.6,83,30.02,10.0,NW,10.4,-,N/A,,Clear,310,2013-01-05 13:35:00
7:55 AM,11.3,7.3,84,30.03,10.0,WNW,8.1,-,N/A,,Clear,300,2013-01-05 13:55:00
8:15 AM,11.8,7.9,84,30.04,10.0,WNW,10.4,-,N/A,,Clear,300,2013-01-05 14:15:00
8:35 AM,12.2,7.9,83,30.05,10.0,NW,13.8,-,N/A,,Clear,310,2013-01-05 14:35:00
8:55 AM,16.3,11.1,80,30.06,10.0,WNW,11.5,-,N/A,,Clear,300,2013-01-05 14:55:00
9:15 AM,16.7,10.9,78,30.06,10.0,WNW,12.7,-,N/A,,Clear,290,2013-01-05 15:15:00
9:55 AM,21.2,14.4,75,30.07,10.0,WNW,13.8,-,N/A,,Clear,290,2013-01-05 15:55:00
10:15 AM,23.2,16.3,75,30.07,10.0,WNW,11.5,-,N/A,,Clear,290,2013-01-05 16:15:00
11:15 AM,29.7,21.2,71,30.10,10.0,WNW,12.7,-,N/A,,Clear,290,2013-01-05 17:15:00
11:35 AM,32.0,23.0,69,30.10,10.0,WNW,15.0,-,N/A,,Clear,300,2013-01-05 17:35:00
11:55 AM,32.9,23.9,69,30.10,10.0,WNW,17.3,-,N/A,,Clear,290,2013-01-05 17:55:00
12:15 PM,34.9,25.0,67,30.09,10.0,WNW,16.1,-,N/A,,Clear,290,2013-01-05 18:15:00
12:35 PM,36.5,26.2,66,30.09,10.0,WNW,15.0,-,N/A,,Clear,300,2013-01-05 18:35:00
12:55 PM,40.5,25.5,55,30.09,10.0,NNW,17.3,25.3,N/A,,Clear,330,2013-01-05 18:55:00
1:15 PM,40.5,26.6,58,30.08,10.0,NNW,18.4,24.2,N/A,,Clear,330,2013-01-05 19:15:00
1:35 PM,40.6,26.1,56,30.08,10.0,NW,15.0,25.3,N/A,,Clear,310,2013-01-05 19:35:00
1:55 PM,39.6,26.6,60,30.08,10.0,WNW,17.3,-,N/A,,Clear,300,2013-01-05 19:55:00
2:15 PM,39.7,27.0,60,30.08,10.0,WNW,13.8,-,N/A,,Clear,290,2013-01-05 20:15:00
2:35 PM,40.1,27.3,60,30.08,10.0,WNW,16.1,-,N/A,,Clear,290,2013-01-05 20:35:00
2:55 PM,41.7,26.2,54,30.09,10.0,NW,23.0,31.1,N/A,,Clear,320,2013-01-05 20:55:00
3:15 PM,41.5,26.6,55,30.09,10.0,NW,20.7,-,N/A,,Clear,320,2013-01-05 21:15:00
3:35 PM,41.2,25.9,55,30.11,10.0,NW,20.7,28.8,N/A,,Clear,320,2013-01-05 21:35:00
3:55 PM,40.6,26.6,57,30.11,10.0,NW,20.7,-,N/A,,Clear,320,2013-01-05 21:55:00
4:15 PM,40.5,26.1,57,30.12,10.0,NW,17.3,27.6,N/A,,Clear,320,2013-01-05 22:15:00
5:15 PM,37.6,24.4,59,30.15,10.0,NW,17.3,-,N/A,,Clear,310,2013-01-05 23:15:00
5:35 PM,36.3,25.0,63,30.15,10.0,WNW,11.5,-,N/A,,Clear,290,2013-01-05 23:35:00
5:55 PM,35.1,25.2,67,30.17,10.0,WNW,15.0,-,N/A,,Clear,300,2013-01-05 23:55:00
6:15 PM,34.2,24.6,68,30.18,10.0,NW,11.5,-,N/A,,Clear,310,2013-01-06 00:15:00
6:35 PM,32.9,24.8,72,30.19,10.0,WNW,12.7,-,N/A,,Clear,300,2013-01-06 00:35:00
6:55 PM,32.2,24.4,73,30.20,10.0,WNW,12.7,-,N/A,,Clear,300,2013-01-06 00:55:00
7:15 PM,32.0,23.9,72,30.20,10.0,WNW,11.5,-,N/A,,Clear,300,2013-01-06 01:15:00
7:55 PM,30.2,23.0,75,30.21,10.0,WNW,11.5,-,N/A,,Clear,300,2013-01-06 01:55:00
8:15 PM,28.4,22.1,77,30.21,10.0,WNW,10.4,-,N/A,,Clear,290,2013-01-06 02:15:00
8:35 PM,26.6,21.2,80,30.22,10.0,WNW,9.2,-,N/A,,Clear,300,2013-01-06 02:35:00
8:55 PM,26.1,21.0,81,30.22,10.0,WNW,9.2,-,N/A,,Clear,290,2013-01-06 02:55:00
9:15 PM,25.9,20.8,81,30.22,10.0,WNW,9.2,-,N/A,,Clear,300,2013-01-06 03:15:00
9:35 PM,25.2,20.3,82,30.22,10.0,WNW,10.4,-,N/A,,Clear,300,2013-01-06 03:35:00
9:55 PM,24.8,20.3,83,30.23,10.0,WNW,10.4,-,N/A,,Clear,290,2013-01-06 03:55:00
10:15 PM,23.7,19.4,84,30.24,10.0,WNW,9.2,-,N/A,,Clear,290,2013-01-06 04:15:00
10:35 PM,23.4,19.4,85,30.24,10.0,WNW,10.4,-,N/A,,Clear,300,2013-01-06 04:35:00
10:55 PM,23.5,19.6,85,30.24,10.0,WNW,12.7,-,N/A,,Clear,300,2013-01-06 04:55:00
11:15 PM,23.0,19.4,86,30.25,10.0,WNW,10.4,-,N/A,,Clear,300,2013-01-06 05:15:00
11:35 PM,21.2,18.1,88,30.25,10.0,West,10.4,-,N/A,,Clear,280,2013-01-06 05:35:00
11:55 PM,21.9,19.0,89,30.26,10.0,WNW,11.5,-,N/A,,Clear,290,2013-01-06 05:55:00